QPF
0.03 0.03 0.04 0.08 0.08 0.11 0.16 0.21 0.28 0.32 0.36 0.37 0.35 0.37 0.30 0.32 0.34 0.34 0.31 0.32 0.37 0.34 0.29 0.29 0.31 0.28 0.24 0.21 0.21 0.20 0.20 0.18 0.16 0.17 0.14 0.10 0.09 0.09 0.07 0.06 0.05 0.04 0.03
0.01 0.03 0.04 0.08 0.12 0.13 0.14 0.16 0.18 0.27 0.36 0.37 0.42 0.47 0.41 0.33 0.30 0.29 0.32 0.28 0.33 0.32 0.27 0.28 0.24 0.21 0.20 0.19 0.18 0.20 0.21 0.18 0.17 0.21 0.21 0.15 0.11 0.07 0.04 0.04 0.03 0.02 0.02
0.06 0.05 0.05 0.10 0.13 0.13 0.12 0.11 0.13 0.20 0.33 0.34 0.34 0.43 0.40 0.27 0.27 0.26 0.28 0.27 0.31 0.37 0.32 0.32 0.27 0.21 0.19 0.17 0.17 0.17 0.18 0.21 0.19 0.17 0.21 0.21 0.19 0.10 0.06 0.03 0.02 0.02 0.02
0.08 0.06 0.03 0.08 0.09 0.10 0.12 0.12 0.12 0.14 0.20 0.27 0.33 0.32 0.27 0.20 0.19 0.18 0.16 0.17 0.18 0.19 0.20 0.20 0.22 0.22 0.19 0.18 0.17 0.14 0.16 0.21 0.20 0.16 0.14 0.15 0.17 0.12 0.07 0.04 0.02 0.02 0.02
0.04 0.04 0.03 0.07 0.06 0.06 0.08 0.10 0.12 0.14 0.16 0.17 0.23 0.27 0.24 0.21 0.21 0.17 0.13 0.12 0.13 0.14 0.14 0.15 0.16 0.17 0.18 0.17 0.16 0.14 0.13 0.15 0.15 0.13 0.11 0.10 0.10 0.09 0.07 0.05 0.03 0.02 0.01
0.02 0.02 0.02 0.03 0.04 0.05 0.05 0.07 0.10 0.15 0.15 0.15 0.16 0.19 0.18 0.18 0.18 0.18 0.16 0.14 0.13 0.12 0.12 0.13 0.15 0.15 0.15 0.13 0.12 0.11 0.10 0.10 0.10 0.10 0.09 0.07 0.07 0.07 0.07 0.05 0.03 0.02 0.01
0.03 0.03 0.02 0.02 0.02 0.04 0.05 0.07 0.09 0.12 0.15 0.16 0.17 0.22 0.22 0.16 0.14 0.16 0.18 0.17 0.16 0.15 0.15 0.13 0.11 0.12 0.10 0.09 0.09 0.09 0.09 0.08 0.07 0.07 0.06 0.04 0.04 0.03 0.03 0.03 0.02 0.01 0.01
0.05 0.04 0.03 0.03 0.03 0.04 0.05 0.06 0.08 0.09 0.11 0.14 0.16 0.18 0.19 0.17 0.15 0.14 0.12 0.12 0.11 0.11 0.10 0.10 0.09 0.08 0.07 0.06 0.05 0.05 0.05 0.04 0.03 0.03 0.03 0.02 0.02 0.03 0.03 0.03 0.03 0.02 0.02
0.06 0.04 0.04 0.04 0.05 0.06 0.07 0.07 0.08 0.10 0.13 0.14 0.15 0.15 0.14 0.13 0.13 0.12 0.11 0.10 0.08 0.07 0.07 0.08 0.08 0.07 0.05 0.05 0.04 0.03 0.03 0.02 0.02 0.02 0.02 0.02 0.02 0.02 0.02 0.02 0.02 0.02 0.02
0.09 0.06 0.05 0.05 0.06 0.07 0.07 0.09 0.10 0.11 0.11 0.11 0.13 0.14 0.12 0.12 0.13 0.13 0.12 0.08 0.07 0.06 0.06 0.05 0.05 0.04 0.04 0.03 0.02 0.02 0.02 0.02 0.02 0.02 0.02 0.02 0.02 0.02 0.02 0.01 0.01 0.01 0.01
0.09 0.07 0.07 0.06 0.07 0.08 0.08 0.09 0.10 0.09 0.08 0.09 0.10 0.10 0.10 0.12 0.18 0.22 0.22 0.16 0.11 0.08 0.06 0.03 0.02 0.02 0.02 0.02 0.02 0.02 0.02 0.01 0.01 0.01 0.01 0.01 0.01 0.01 0.01 0.01 0.01 0.01 0.00
0.06 0.07 0.06 0.05 0.07 0.08 0.09 0.10 0.11 0.09 0.08 0.09 0.08 0.09 0.11 0.12 0.12 0.13 0.14 0.11 0.09 0.07 0.05 0.03 0.03 0.02 0.02 0.02 0.02 0.01 0.01 0.01 0.00 0.00 0.00 0.00 0.00 0.00 0.00 0.00 0.00 0.00 0.00
0.08 0.08 0.08 0.06 0.07 0.08 0.08 0.09 0.09 0.08 0.08 0.08 0.08 0.08 0.08 0.07 0.07 0.07 0.07 0.08 0.07 0.07 0.05 0.04 0.04 0.04 0.03 0.02 0.02 0.02 0.01 0.01 0.00 0.00 0.00 0.00 0.00 0.00 0.00 0.00 0.00 0.00 0.00
0.12 0.12 0.12 0.09 0.08 0.08 0.09 0.10 0.09 0.08 0.08 0.08 0.08 0.09 0.09 0.08 0.07 0.06 0.05 0.05 0.05 0.05 0.04 0.04 0.04 0.03 0.03 0.02 0.02 0.01 0.01 0.00 0.00 0.00 0.00 0.00 0.00 0.00 0.00 0.00 0.00 0.00 0.01
0.13 0.13 0.14 0.14 0.11 0.10 0.10 0.12 0.12 0.11 0.10 0.09 0.10 0.11 0.11 0.09 0.07 0.06 0.05 0.04 0.03 0.02 0.03 0.02 0.02 0.02 0.02 0.02 0.01 0.01 0.00 0.00 0.00 0.00 0.00 0.00 0.00 0.00 0.00 0.00 0.00 0.00 0.01
0.11 0.10 0.11 0.13 0.11 0.11 0.10 0.09 0.11 0.11 0.11 0.10 0.10 0.11 0.10 0.08 0.06 0.05 0.04 0.04 0.03 0.03 0.03 0.02 0.01 0.01 0.00 0.00 0.00 0.00 0.00 0.00 0.00 0.00 0.00 0.00 0.00 0.00 0.00 0.00 0.00 0.00 0.00
0.09 0.09 0.11 0.14 0.12 0.10 0.10 0.09 0.09 0.09 0.09 0.09 0.09 0.08 0.07 0.06 0.05 0.04 0.03 0.03 0.03 0.02 0.01 0.01 0.01 0.00 0.00 0.00 0.00 0.00 0.01 0.01 0.01 0.01 0.01 0.00 0.00 0.00 0.00 0.00 0.00 0.00 0.00
0.11 0.09 0.11 0.11 0.12 0.11 0.11 0.10 0.09 0.09 0.09 0.07 0.05 0.05 0.04 0.03 0.02 0.03 0.03 0.03 0.03 0.03 0.02 0.01 0.01 0.00 0.00 0.00 0.00 0.00 0.01 0.01 0.01 0.01 0.01 0.02 0.01 0.00 0.00 0.00 0.01 0.02 0.02
0.12 0.09 0.07 0.07 0.08 0.10 0.11 0.10 0.08 0.08 0.08 0.07 0.05 0.04 0.03 0.03 0.02 0.03 0.03 0.03 0.04 0.03 0.02 0.01 0.01 0.00 0.00 0.00 0.00 0.00 0.02 0.02 0.01 0.00 0.00 0.01 0.01 0.00 0.00 0.01 0.03 0.03 0.03
0.10 0.08 0.07 0.06 0.07 0.09 0.10 0.08 0.07 0.06 0.06 0.06 0.06 0.04 0.04 0.04 0.03 0.03 0.03 0.03 0.03 0.02 0.02 0.02 0.02 0.01 0.00 0.00 0.00 0.00 0.01 0.03 0.02 0.02 0.01 0.00 0.00 0.00 0.00 0.01 0.02 0.02 0.02
0.10 0.08 0.07 0.07 0.07 0.06 0.07 0.07 0.06 0.05 0.03 0.02 0.03 0.03 0.03 0.03 0.03 0.03 0.03 0.02 0.03 0.03 0.02 0.02 0.01 0.01 0.00 0.00 0.00 0.00 0.01 0.02 0.02 0.02 0.01 0.00 0.00 0.00 0.00 0.00 0.01 0.01 0.00
0.09 0.08 0.08 0.07 0.06 0.05 0.06 0.06 0.05 0.03 0.02 0.01 0.02 0.02 0.02 0.01 0.02 0.03 0.03 0.03 0.03 0.03 0.03 0.03 0.02 0.01 0.00 0.00 0.00 0.00 0.00 0.00 0.02 0.02 0.00 0.00 0.00 0.00 0.00 0.00 0.00 0.00 0.00
0.07 0.08 0.08 0.07 0.06 0.05 0.05 0.05 0.04 0.02 0.02 0.02 0.03 0.03 0.02 0.02 0.03 0.04 0.04 0.03 0.03 0.03 0.03 0.03 0.02 0.02 0.02 0.00 0.00 0.00 0.00 0.00 0.01 0.01 0.00 0.00 0.00 0.00 0.00 0.00 0.00 0.00 0.00
0.07 0.07 0.07 0.07 0.06 0.05 0.04 0.03 0.02 0.02 0.04 0.04 0.03 0.03 0.04 0.04 0.03 0.03 0.02 0.03 0.03 0.02 0.02 0.01 0.01 0.02 0.02 0.01 0.01 0.01 0.00 0.00 0.00 0.00 0.00 0.00 0.00 0.00 0.00 0.00 0.00 0.00 0.00
0.07 0.07 0.07 0.05 0.05 0.04 0.03 0.02 0.02 0.03 0.05 0.04 0.03 0.04 0.05 0.04 0.03 0.01 0.01 0.01 0.01 0.01 0.01 0.02 0.02 0.02 0.01 0.00 0.00 0.00 0.01 0.00 0.00 0.00 0.01 0.02 0.01 0.01 0.01 0.01 0.00 0.00 0.00
0.07 0.07 0.06 0.05 0.04 0.03 0.03 0.02 0.03 0.03 0.04 0.04 0.04 0.04 0.04 0.03 0.02 0.01 0.00 0.00 0.00 0.00 0.00 0.00 0.00 0.00 0.00 0.00 0.00 0.00 0.00 0.00 0.00 0.00 0.02 0.02 0.01 0.01 0.01 0.01 0.00 0.00 0.00
MSLP
1001.65 1001.78 1002.08 1002.53 1003.17 1003.95 1004.89 1005.92 1007.02 1008.12 1009.18 1010.14 1010.97 1011.64 1012.16 1012.52 1012.75 1012.89 1012.99 1013.07 1013.16 1013.31 1013.50 1013.77 1014.09 1014.46 1014.88 1015.33 1015.80 1016.28 1016.79 1017.31 1017.85 1018.41 1018.98 1019.54 1020.08 1020.57 1021.00 1021.36 1021.63 1021.84 1021.99
1002.60 1002.72 1002.95 1003.33 1003.86 1004.56 1005.40 1006.38 1007.46 1008.58 1009.68 1010.71 1011.60 1012.34 1012.90 1013.29 1013.53 1013.66 1013.73 1013.79 1013.85 1013.96 1014.13 1014.35 1014.62 1014.94 1015.28 1015.65 1016.04 1016.45 1016.89 1017.37 1017.88 1018.43 1019.01 1019.59 1020.16 1020.69 1021.17 1021.56 1021.88 1022.13 1022.32
1003.92 1003.98 1004.12 1004.37 1004.75 1005.28 1005.98 1006.83 1007.82 1008.89 1009.98 1011.04 1011.99 1012.79 1013.42 1013.88 1014.17 1014.35 1014.45 1014.52 1014.59 1014.69 1014.82 1015.01 1015.23 1015.47 1015.74 1016.02 1016.32 1016.64 1017.00 1017.42 1017.89 1018.41 1018.97 1019.56 1020.15 1020.71 1021.21 1021.65 1022.02 1022.31 1022.55
1005.43 1005.42 1005.45 1005.54 1005.74 1006.06 1006.56 1007.23 1008.07 1009.04 1010.08 1011.12 1012.11 1012.98 1013.70 1014.25 1014.65 1014.92 1015.09 1015.21 1015.32 1015.43 1015.56 1015.72 1015.89 1016.07 1016.26 1016.46 1016.68 1016.92 1017.21 1017.56 1017.97 1018.45 1018.99 1019.56 1020.14 1020.70 1021.22 1021.68 1022.08 1022.41 1022.68
1006.95 1006.88 1006.80 1006.74 1006.75 1006.87 1007.14 1007.61 1008.27 1009.10 1010.05 1011.06 1012.06 1012.99 1013.80 1014.47 1014.98 1015.37 1015.65 1015.86 1016.03 1016.17 1016.31 1016.45 1016.59 1016.73 1016.86 1017.00 1017.15 1017.34 1017.57 1017.86 1018.23 1018.65 1019.14 1019.66 1020.21 1020.74 1021.24 1021.70 1022.10 1022.45 1022.75
1008.32 1008.21 1008.06 1007.88 1007.74 1007.68 1007.76 1008.03 1008.51 1009.19 1010.03 1010.98 1011.97 1012.94 1013.83 1014.61 1015.25 1015.76 1016.16 1016.46 1016.70 1016.89 1017.04 1017.18 1017.30 1017.41 1017.51 1017.62 1017.74 1017.90 1018.10 1018.36 1018.68 1019.05 1019.48 1019.94 1020.41 1020.89 1021.34 1021.76 1022.14 1022.47 1022.77
1009.42 1009.33 1009.15 1008.93 1008.69 1008.52 1008.46 1008.57 1008.90 1009.44 1010.17 1011.04 1012.00 1012.98 1013.92 1014.78 1015.53 1016.14 1016.64 1017.03 1017.33 1017.55 1017.73 1017.87 1017.98 1018.08 1018.18 1018.29 1018.41 1018.57 1018.77 1019.01 1019.30 1019.63 1019.99 1020.37 1020.76 1021.15 1021.52 1021.87 1022.19 1022.49 1022.77
1010.23 1010.20 1010.07 1009.87 1009.63 1009.41 1009.29 1009.31 1009.53 1009.96 1010.58 1011.37 1012.27 1013.23 1014.18 1015.08 1015.88 1016.56 1017.13 1017.57 1017.91 1018.16 1018.35 1018.49 1018.60 1018.70 1018.81 1018.94 1019.10 1019.29 1019.51 1019.76 1020.04 1020.33 1020.63 1020.93 1021.22 1021.50 1021.78 1022.04 1022.29 1022.54 1022.77
1010.80 1010.87 1010.84 1010.73 1010.56 1010.39 1010.28 1010.28 1010.44 1010.79 1011.33 1012.02 1012.85 1013.74 1014.66 1015.54 1016.35 1017.05 1017.63 1018.09 1018.44 1018.70 1018.89 1019.02 1019.14 1019.25 1019.39 1019.55 1019.75 1019.98 1020.24 1020.52 1020.79 1021.06 1021.31 1021.54 1021.74 1021.93 1022.10 1022.27 1022.45 1022.63 1022.81
1011.20 1011.41 1011.53 1011.56 1011.53 1011.46 1011.42 1011.45 1011.61 1011.92 1012.38 1012.99 1013.72 1014.53 1015.36 1016.17 1016.93 1017.60 1018.16 1018.60 1018.94 1019.18 1019.35 1019.48 1019.60 1019.73 1019.89 1020.08 1020.33 1020.60 1020.91 1021.21 1021.50 1021.76 1021.98 1022.15 1022.28 1022.38 1022.47 1022.56 1022.66 1022.77 1022.90
1011.58 1011.94 1012.21 1012.40 1012.52 1012.60 1012.67 1012.78 1012.97 1013.27 1013.68 1014.20 1014.82 1015.50 1016.22 1016.93 1017.60 1018.19 1018.69 1019.09 1019.40 1019.62 1019.77 1019.90 1020.01 1020.15 1020.32 1020.55 1020.82 1021.14 1021.48 1021.81 1022.12 1022.37 1022.57 1022.71 1022.79 1022.84 1022.87 1022.89 1022.93 1022.99 1023.08
1012.03 1012.52 1012.93 1013.27 1013.54 1013.76 1013.96 1014.16 1014.40 1014.70 1015.06 1015.50 1016.01 1016.57 1017.16 1017.74 1018.30 1018.80 1019.23 1019.58 1019.85 1020.05 1020.19 1020.31 1020.42 1020.56 1020.75 1020.99 1021.28 1021.61 1021.97 1022.31 1022.63 1022.89 1023.08 1023.20 1023.27 1023.28 1023.27 1023.27 1023.27 1023.29 1023.34
1012.64 1013.21 1013.73 1014.18 1014.57 1014.91 1015.22 1015.50 1015.79 1016.09 1016.42 1016.78 1017.18 1017.61 1018.07 1018.53 1018.97 1019.39 1019.75 1020.06 1020.31 1020.50 1020.64 1020.76 1020.88 1021.02 1021.21 1021.44 1021.73 1022.06 1022.41 1022.75 1023.06 1023.32 1023.51 1023.64 1023.69 1023.71 1023.69 1023.67 1023.66 1023.66 1023.68
1013.40 1014.02 1014.59 1015.11 1015.58 1016.00 1016.38 1016.73 1017.04 1017.35 1017.64 1017.93 1018.24 1018.56 1018.89 1019.24 1019.59 1019.93 1020.25 1020.53 1020.77 1020.97 1021.13 1021.27 1021.40 1021.55 1021.73 1021.94 1022.21 1022.51 1022.83 1023.15 1023.45 1023.70 1023.89 1024.02 1024.09 1024.11 1024.10 1024.08 1024.07 1024.06 1024.07
1014.31 1014.94 1015.52 1016.05 1016.54 1017.00 1017.41 1017.79 1018.12 1018.41 1018.67 1018.91 1019.13 1019.35 1019.59 1019.85 1020.12 1020.41 1020.70 1020.98 1021.24 1021.47 1021.67 1021.83 1021.98 1022.13 1022.30 1022.49 1022.72 1022.98 1023.26 1023.54 1023.81 1024.04 1024.23 1024.36 1024.44 1024.48 1024.49 1024.48 1024.47 1024.46 1024.45
1015.30 1015.91 1016.46 1016.97 1017.45 1017.89 1018.31 1018.69 1019.01 1019.29 1019.51 1019.69 1019.85 1020.00 1020.16 1020.35 1020.57 1020.83 1021.11 1021.41 1021.69 1021.96 1022.20 1022.41 1022.58 1022.74 1022.89 1023.06 1023.24 1023.45 1023.68 1023.92 1024.15 1024.36 1024.54 1024.67 1024.76 1024.81 1024.83 1024.83 1024.82 1024.81 1024.78
1016.31 1016.88 1017.38 1017.84 1018.28 1018.70 1019.09 1019.44 1019.75 1020.00 1020.18 1020.32 1020.43 1020.52 1020.62 1020.76 1020.95 1021.19 1021.47 1021.78 1022.10 1022.41 1022.70 1022.94 1023.14 1023.31 1023.45 1023.60 1023.74 1023.90 1024.08 1024.27 1024.47 1024.65 1024.81 1024.94 1025.04 1025.09 1025.11 1025.11 1025.09 1025.06 1025.02
1017.27 1017.78 1018.23 1018.64 1019.03 1019.40 1019.76 1020.08 1020.36 1020.57 1020.73 1020.83 1020.90 1020.95 1021.01 1021.11 1021.27 1021.49 1021.77 1022.10 1022.45 1022.79 1023.11 1023.38 1023.61 1023.79 1023.93 1024.05 1024.17 1024.30 1024.44 1024.59 1024.75 1024.91 1025.06 1025.17 1025.26 1025.31 1025.33 1025.31 1025.27 1025.21 1025.13
1018.10 1018.58 1018.99 1019.35 1019.68 1020.01 1020.32 1020.61 1020.86 1021.05 1021.18 1021.26 1021.30 1021.32 1021.35 1021.42 1021.56 1021.77 1022.04 1022.36 1022.72 1023.08 1023.42 1023.72 1023.96 1024.15 1024.30 1024.42 1024.52 1024.62 1024.73 1024.86 1025.00 1025.14 1025.26 1025.37 1025.44 1025.48 1025.47 1025.42 1025.35 1025.25 1025.14
1018.79 1019.23 1019.60 1019.91 1020.21 1020.50 1020.78 1021.04 1021.27 1021.44 1021.56 1021.62 1021.65 1021.65 1021.67 1021.72 1021.83 1022.02 1022.27 1022.59 1022.94 1023.30 1023.65 1023.96 1024.22 1024.42 1024.58 1024.69 1024.79 1024.88 1024.98 1025.09 1025.21 1025.33 1025.44 1025.53 1025.58 1025.60 1025.56 1025.48 1025.37 1025.22 1025.07
1019.28 1019.70 1020.03 1020.32 1020.58 1020.85 1021.10 1021.35 1021.56 1021.73 1021.85 1021.92 1021.94 1021.95 1021.96 1022.00 1022.10 1022.26 1022.50 1022.80 1023.14 1023.50 1023.85 1024.16 1024.43 1024.64 1024.80 1024.93 1025.03 1025.11 1025.20 1025.30 1025.41 1025.51 1025.60 1025.66 1025.69 1025.68 1025.61 1025.49 1025.33 1025.15 1024.95
1019.58 1019.96 1020.26 1020.53 1020.77 1021.02 1021.27 1021.51 1021.73 1021.91 1022.04 1022.13 1022.17 1022.20 1022.22 1022.27 1022.36 1022.52 1022.75 1023.03 1023.36 1023.71 1024.05 1024.37 1024.64 1024.87 1025.04 1025.17 1025.27 1025.35 1025.43 1025.51 1025.59 1025.67 1025.73 1025.77 1025.77 1025.72 1025.62 1025.47 1025.28 1025.06 1024.82
1019.67 1020.02 1020.29 1020.54 1020.78 1021.02 1021.26 1021.51 1021.75 1021.96 1022.12 1022.25 1022.33 1022.39 1022.45 1022.52 1022.63 1022.80 1023.02 1023.31 1023.63 1023.97 1024.32 1024.64 1024.92 1025.15 1025.32 1025.45 1025.55 1025.62 1025.68 1025.73 1025.77 1025.81 1025.83 1025.83 1025.79 1025.71 1025.58 1025.41 1025.20 1024.95 1024.69
1019.59 1019.89 1020.15 1020.38 1020.61 1020.85 1021.11 1021.38 1021.65 1021.89 1022.10 1022.28 1022.42 1022.53 1022.63 1022.75 1022.89 1023.09 1023.33 1023.62 1023.95 1024.30 1024.65 1024.97 1025.26 1025.49 1025.67 1025.79 1025.87 1025.91 1025.93 1025.93 1025.92 1025.91 1025.88 1025.83 1025.75 1025.64 1025.49 1025.31 1025.09 1024.84 1024.58
1019.36 1019.63 1019.87 1020.10 1020.33 1020.58 1020.86 1021.16 1021.46 1021.75 1022.02 1022.25 1022.45 1022.63 1022.79 1022.96 1023.15 1023.37 1023.64 1023.95 1024.29 1024.65 1025.01 1025.35 1025.63 1025.87 1026.03 1026.14 1026.18 1026.18 1026.15 1026.09 1026.01 1025.93 1025.84 1025.74 1025.63 1025.49 1025.34 1025.16 1024.95 1024.72 1024.48
1019.05 1019.31 1019.54 1019.77 1020.02 1020.29 1020.59 1020.92 1021.26 1021.59 1021.91 1022.21 1022.47 1022.70 1022.92 1023.14 1023.37 1023.63 1023.93 1024.26 1024.62 1024.99 1025.36 1025.69 1025.98 1026.21 1026.36 1026.43 1026.44 1026.38 1026.28 1026.15 1026.01 1025.86 1025.71 1025.56 1025.42 1025.27 1025.12 1024.96 1024.79 1024.60 1024.40
Thickness
5741 5741 5739 5737 5736 5736 5735 5735 5734 5735 5735 5732 5729 5726 5723 5722 5721 5720 5721 5720 5719 5719 5719 5718 5718 5718 5715 5714 5713 5711 5709 5705 5704 5699 5693 5691 5691 5689 5687 5685 5683 5680 5678
5727 5725 5723 5722 5722 5722 5723 5724 5725 5726 5726 5723 5721 5719 5716 5713 5711 5710 5711 5711 5713 5713 5713 5712 5711 5711 5710 5707 5707 5706 5702 5700 5699 5694 5687 5680 5677 5677 5677 5675 5673 5670 5668
5711 5710 5709 5709 5711 5711 5713 5716 5715 5716 5716 5714 5712 5711 5709 5707 5704 5703 5702 5703 5705 5706 5706 5706 5704 5704 5704 5701 5700 5700 5697 5692 5691 5691 5686 5678 5672 5666 5664 5663 5661 5659 5657
5700 5698 5696 5697 5699 5702 5705 5708 5707 5708 5708 5708 5707 5704 5700 5697 5695 5694 5693 5694 5696 5696 5696 5696 5695 5695 5695 5693 5693 5693 5691 5688 5684 5682 5682 5679 5675 5665 5655 5652 5651 5650 5647
5686 5684 5684 5686 5689 5692 5694 5695 5697 5699 5700 5700 5701 5698 5694 5690 5687 5685 5684 5684 5685 5685 5685 5686 5686 5685 5684 5683 5682 5682 5681 5680 5677 5675 5673 5671 5668 5665 5655 5645 5642 5640 5637
5675 5674 5675 5676 5677 5679 5682 5683 5685 5686 5690 5691 5692 5691 5688 5684 5679 5677 5674 5674 5674 5675 5674 5674 5674 5674 5673 5671 5670 5670 5670 5668 5666 5665 5664 5661 5658 5654 5650 5643 5636 5632 5628
5663 5662 5662 5662 5663 5665 5668 5671 5673 5674 5677 5679 5680 5680 5677 5676 5673 5669 5667 5665 5664 5664 5662 5662 5662 5661 5661 5659 5659 5658 5657 5656 5655 5654 5653 5652 5649 5648 5644 5638 5631 5626 5621
5652 5650 5650 5649 5650 5652 5655 5657 5660 5662 5664 5667 5667 5667 5665 5665 5662 5660 5657 5654 5653 5653 5652 5652 5651 5650 5648 5648 5648 5646 5645 5644 5644 5643 5642 5640 5639 5638 5636 5630 5625 5619 5613
5640 5638 5637 5636 5636 5638 5641 5645 5646 5649 5651 5653 5654 5653 5652 5652 5650 5648 5645 5643 5642 5642 5642 5641 5640 5639 5638 5637 5637 5635 5634 5634 5633 5631 5630 5629 5628 5628 5626 5623 5619 5613 5607
5629 5626 5625 5624 5623 5625 5628 5632 5634 5636 5637 5639 5640 5640 5639 5638 5638 5636 5634 5633 5632 5632 5631 5631 5629 5628 5627 5627 5626 5625 5624 5622 5621 5620 5619 5618 5617 5616 5615 5612 5610 5607 5601
5619 5616 5613 5612 5612 5613 5615 5617 5619 5621 5623 5625 5626 5627 5625 5625 5624 5622 5621 5620 5621 5621 5620 5620 5619 5618 5617 5617 5617 5615 5614 5612 5611 5609 5607 5605 5605 5604 5603 5601 5598 5595 5591
5610 5607 5603 5602 5601 5602 5603 5604 5606 5607 5609 5611 5613 5613 5612 5612 5611 5609 5609 5610 5610 5609 5609 5610 5610 5609 5608 5608 5607 5606 5604 5602 5600 5599 5597 5596 5594 5592 5590 5588 5586 5582 5579
5601 5597 5594 5592 5591 5591 5592 5593 5593 5595 5597 5599 5600 5599 5598 5598 5598 5598 5598 5599 5599 5599 5599 5599 5599 5598 5597 5597 5596 5595 5593 5592 5591 5589 5586 5584 5582 5579 5577 5576 5573 5571 5569
5591 5588 5584 5582 5581 5581 5582 5582 5583 5584 5586 5587 5587 5586 5585 5585 5586 5587 5588 5589 5589 5588 5588 5588 5588 5588 5587 5586 5585 5584 5582 5582 5580 5578 5574 5571 5569 5566 5565 5564 5561 5559 5556
5582 5579 5576 5573 5572 5572 5573 5573 5573 5574 5575 5576 5576 5575 5574 5575 5575 5576 5577 5578 5578 5578 5578 5578 5577 5577 5574 5572 5572 5573 5573 5571 5569 5567 5564 5560 5558 5555 5553 5551 5548 5546 5544
5576 5573 5569 5567 5565 5564 5564 5564 5564 5564 5565 5566 5565 5564 5565 5565 5565 5565 5566 5566 5566 5567 5567 5566 5565 5564 5561 5559 5560 5562 5562 5561 5559 5557 5555 5551 5549 5546 5543 5541 5538 5535 5532
5570 5566 5563 5560 5558 5556 5556 5556 5556 5556 5557 5557 5556 5556 5556 5556 5556 5557 5556 5556 5557 5556 5555 5554 5552 5550 5549 5549 5550 5550 5552 5551 5550 5548 5546 5546 5540 5536 5534 5532 5530 5526 5523
5564 5559 5556 5553 5551 5549 5548 5548 5548 5548 5548 5548 5548 5548 5548 5548 5547 5547 5548 5547 5547 5546 5546 5544 5542 5541 5539 5539 5540 5540 5543 5543 5541 5539 5537 5533 5528 5524 5523 5523 5523 5521 5517
5558 5553 5550 5547 5545 5543 5542 5541 5541 5541 5541 5540 5541 5541 5541 5541 5540 5540 5540 5539 5539 5538 5537 5536 5534 5532 5530 5529 5530 5531 5534 5534 5532 5529 5525 5523 5518 5515 5514 5515 5514 5513 5510
5551 5547 5544 5541 5539 5537 5536 5535 5535 5535 5534 5534 5535 5535 5535 5534 5533 5533 5533 5533 5533 5532 5531 5529 5527 5525 5523 5521 5522 5523 5526 5525 5523 5519 5515 5511 5509 5507 5506 5505 5505 5503 5501
5546 5542 5539 5536 5533 5532 5531 5531 5530 5530 5530 5530 5529 5529 5528 5528 5527 5527 5527 5527 5526 5525 5524 5521 5519 5518 5515 5513 5514 5514 5516 5516 5515 5512 5508 5504 5502 5501 5499 5498 5497 5494 5493
5542 5538 5535 5531 5529 5528 5527 5526 5525 5525 5525 5524 5523 5523 5524 5525 5523 5522 5521 5520 5520 5518 5516 5515 5512 5510 5508 5507 5506 5506 5506 5506 5506 5504 5502 5499 5497 5495 5494 5493 5492 5491 5490
5539 5535 5531 5527 5525 5524 5523 5522 5521 5521 5520 5519 5518 5518 5519 5518 5517 5517 5515 5515 5515 5513 5511 5510 5507 5505 5503 5500 5499 5499 5499 5499 5498 5497 5495 5494 5492 5490 5490 5489 5488 5487 5488
5536 5533 5529 5525 5522 5521 5520 5519 5518 5517 5516 5514 5514 5513 5513 5512 5511 5510 5509 5508 5508 5507 5507 5505 5503 5500 5497 5495 5494 5494 5493 5492 5491 5491 5490 5489 5489 5488 5486 5486 5486 5486 5486
5535 5531 5527 5524 5521 5519 5517 5516 5514 5513 5511 5510 5510 5509 5507 5505 5503 5500 5497 5497 5493 5494 5497 5497 5496 5494 5489 5483 5483 5485 5485 5484 5482 5483 5486 5487 5488 5487 5487 5487 5486 5485 5483
5533 5529 5525 5522 5519 5517 5515 5513 5511 5510 5508 5506 5506 5505 5503 5501 5499 5496 5491 5486 5486 5485 5486 5485 5485 5482 5480 5479 5480 5480 5479 5479 5479 5480 5483 5484 5484 5483 5482 5481 5481 5480 5479